Weather in Tsagan-Usn

Russia / Republic of Kalmykia     46°02′58″N   45°17′37″E
temp.,
°C
wind,
m/s
gust,
m/s
humid.,
%
clouds,
%
prec.,
mm/h
press.,
hPa
HPBL,
m
13 may, thu
thu1300:00+16sse23641 0.0 101423
03:00+15sse33690 0.0 101440
06:00+15s23670 0.0 1015118
09:00+20sse22462 0.0 1015557
12:00+24se33370 0.0 10151058
15:00+27ese34310 0.0 10151255
18:00+27ene33351 0.0 1014128
21:00+21se49485 0.0 1015166
14 may, fri
fri1400:00+17se35633 0.0 1015113
03:00+16ese37735 0.0 1015153
06:00+17ese3869100 0.0 1015231
09:00+25se7114094 0.0 1015650
12:00+31se1014240 0.0 10141516
15:00+32se1115200 0.0 10131822
18:00+28ese913310 0.0 1013655
21:00+22ese717330 0.0 1014471
15 may, sat
sat1500:00+19ese515340 0.0 1014329
03:00+19ese616390 0.0 1014342
06:00+19ese515420 0.0 1014361
09:00+27se814240 0.0 1014843
12:00+32se1014141 0.0 10132150
15:00+32se11121367 0.0 10132267
18:00+28se813210 0.0 1013569
21:00+22ese613390 0.0 1014349
16 may, sun
sun1600:00+20ese613475 0.0 1013268
03:00+18ese410485 0.0 1013172
06:00+20e410495 0.0 1012217
09:00+28ese7112892 0.0 1011790
12:00+33ese12151883 0.0 10102914
15:00+32ese12152023 0.0 10092558
18:00+28ese9142549 0.0 1009835
21:00+24ese817291 0.0 1009527
17 may, mon
mon1700:00+22e717385 0.0 1008416
03:00+20e616411 0.0 1007347
06:00+21ese617445 0.0 1007484
09:00+29ese10152123 0.0 10071132
12:00+32se111416100 0.0 10072605
15:00+32ese101314100 0.0 10062468
18:00+28ese7112311 0.0 1007529
21:00+23ese33319 0.0 101030